timestamp,wind_dir_avg,wind_spd_avg,wind_spd_max_dir,wind_spd_gust,battery_voltage,lat,long
2021-12-20 00:04:01+00:00,1.0,7.63,31.0,10.43,12.57,47.59359,-54.27349
2021-12-20 00:14:01+00:00,31.0,7.51,32.0,9.48,12.49,47.59359,-54.27349
2021-12-20 00:24:01+00:00,24.0,8.03,33.0,9.54,12.49,47.59359,-54.27349
2021-12-20 00:34:01+00:00,13.0,8.04,359.0,9.81,12.49,47.59359,-54.27349
2021-12-20 00:44:01+00:00,22.0,7.82,34.0,9.54,12.49,47.59359,-54.27349
2021-12-20 00:54:01+00:00,11.0,7.84,19.0,9.62,12.49,47.59359,-54.27349
2021-12-20 01:04:01+00:00,23.0,9.17,31.0,11.03,12.49,47.59359,-54.27349
2021-12-20 01:14:01+00:00,3.0,8.27,7.0,10.32,12.49,47.59359,-54.27349
2021-12-20 01:24:01+00:00,356.0,7.12,325.0,8.51,12.49,47.59359,-54.27349
2021-12-20 01:34:01+00:00,353.0,9.14,334.0,10.59,12.49,47.59359,-54.27349
2021-12-20 01:44:01+00:00,4.0,7.7,34.0,9.98,12.49,47.59359,-54.27349
2021-12-20 01:54:01+00:00,359.0,8.83,0.0,10.08,12.49,47.59359,-54.27349
2021-12-20 02:04:01+00:00,3.0,8.76,3.0,10.21,12.49,47.59359,-54.27349
2021-12-20 02:14:01+00:00,3.0,8.67,1.0,9.92,12.41,47.59359,-54.27349
2021-12-20 02:24:01+00:00,18.0,7.57,33.0,9.41,12.41,47.59359,-54.27349
2021-12-20 02:34:01+00:00,24.0,7.37,27.0,9.11,12.41,47.59359,-54.27349
2021-12-20 02:44:01+00:00,1.0,7.92,3.0,9.04,12.41,47.59359,-54.27349
2021-12-20 02:54:01+00:00,0.0,6.07,0.0,7.29,12.41,47.59359,-54.27349
2021-12-20 03:04:01+00:00,3.0,7.16,1.0,8.37,12.41,47.59359,-54.27349
2021-12-20 03:14:01+00:00,355.0,4.84,44.0,7.08,12.41,47.59359,-54.27349
2021-12-20 03:24:01+00:00,356.0,5.41,318.0,7.04,12.41,47.59359,-54.27349
2021-12-20 03:34:01+00:00,351.0,6.88,326.0,9.16,12.41,47.59359,-54.27349
2021-12-20 03:44:01+00:00,347.0,6.28,326.0,8.73,12.41,47.59359,-54.27349
2021-12-20 03:54:01+00:00,325.0,7.35,321.0,9.01,12.41,47.59359,-54.27349
2021-12-20 04:04:01+00:00,344.0,6.89,321.0,8.66,12.41,47.59359,-54.27349
2021-12-20 04:14:00+00:00,349.0,7.97,330.0,9.53,12.41,47.59359,-54.27349
2021-12-20 04:24:00+00:00,6.0,7.33,31.0,8.42,12.41,47.59359,-54.27349
2021-12-20 04:34:00+00:00,2.0,6.87,16.0,8.43,12.41,47.59359,-54.27349
2021-12-20 04:44:00+00:00,31.0,7.29,36.0,8.79,12.41,47.59359,-54.27349
2021-12-20 04:54:00+00:00,32.0,8.13,31.0,9.77,12.41,47.59359,-54.27349
2021-12-20 05:04:00+00:00,41.0,7.77,42.0,8.76,12.41,47.59359,-54.27349
2021-12-20 05:14:00+00:00,13.0,4.99,42.0,7.13,12.41,47.59359,-54.27349
2021-12-20 05:24:00+00:00,355.0,5.55,338.0,7.23,12.41,47.59359,-54.27349
2021-12-20 05:34:00+00:00,17.0,4.44,48.0,6.5,12.41,47.59359,-54.27349
2021-12-20 05:44:00+00:00,0.0,4.08,50.0,6.01,12.41,47.59359,-54.27349
2021-12-20 05:54:00+00:00,20.0,6.13,38.0,8.33,12.41,47.59359,-54.27349
2021-12-20 06:04:00+00:00,357.0,3.94,3.0,4.85,12.41,47.59359,-54.27349
2021-12-20 06:14:00+00:00,345.0,4.89,318.0,7.23,12.41,47.59359,-54.27349
2021-12-20 06:24:00+00:00,320.0,7.99,322.0,10.43,12.41,47.59359,-54.27349
2021-12-20 06:34:00+00:00,320.0,7.68,327.0,9.87,12.41,47.59359,-54.27349
2021-12-20 06:44:00+00:00,1.0,5.13,1.0,7.63,12.41,47.59359,-54.27349
2021-12-20 06:54:00+00:00,326.0,7.25,326.0,8.82,12.41,47.59359,-54.27349
2021-12-20 07:04:00+00:00,336.0,5.66,326.0,8.48,12.41,47.59359,-54.27349
2021-12-20 07:14:01+00:00,344.0,5.88,325.0,8.12,12.41,47.59359,-54.27349
2021-12-20 07:24:01+00:00,326.0,7.11,325.0,8.87,12.41,47.59359,-54.27349
2021-12-20 07:34:01+00:00,350.0,5.34,17.0,7.7,12.41,47.59359,-54.27349
2021-12-20 07:44:01+00:00,25.0,6.97,37.0,9.52,12.41,47.59359,-54.27349
2021-12-20 07:54:01+00:00,27.0,5.82,40.0,8.88,12.41,47.59359,-54.27349
2021-12-20 08:04:01+00:00,27.0,6.97,37.0,8.91,12.41,47.59359,-54.27349
2021-12-20 08:14:00+00:00,359.0,5.95,331.0,7.76,12.41,47.59359,-54.27349
2021-12-20 08:24:00+00:00,28.0,7.37,34.0,9.31,12.41,47.59359,-54.27349
2021-12-20 08:34:00+00:00,356.0,7.39,4.0,9.04,12.41,47.59359,-54.27349
2021-12-20 08:44:00+00:00,356.0,6.7,26.0,8.43,12.41,47.59359,-54.27349
2021-12-20 08:54:00+00:00,4.0,6.9,2.0,8.21,12.41,47.59359,-54.27349
2021-12-20 09:04:00+00:00,41.0,8.05,39.0,9.2,12.41,47.59359,-54.27349
2021-12-20 09:14:00+00:00,345.0,7.22,326.0,8.88,12.41,47.59359,-54.27349
2021-12-20 09:24:00+00:00,351.0,8.36,328.0,10.35,12.41,47.59359,-54.27349
2021-12-20 09:34:00+00:00,6.0,7.98,2.0,9.79,12.41,47.59359,-54.27349
2021-12-20 09:44:00+00:00,13.0,7.4,35.0,9.41,12.41,47.59359,-54.27349
2021-12-20 09:54:00+00:00,8.0,8.04,2.0,10.39,12.41,47.59359,-54.27349
2021-12-20 10:04:00+00:00,345.0,6.62,0.0,8.72,12.41,47.59359,-54.27349
2021-12-20 10:14:00+00:00,324.0,7.74,321.0,9.28,12.41,47.59359,-54.27349
2021-12-20 10:24:00+00:00,327.0,7.26,323.0,8.98,12.41,47.59359,-54.27349
2021-12-20 10:34:00+00:00,357.0,7.06,327.0,8.45,12.41,47.59359,-54.27349
2021-12-20 10:44:00+00:00,328.0,7.69,319.0,9.97,12.41,47.59359,-54.27349
2021-12-20 10:54:00+00:00,339.0,7.95,324.0,9.88,12.41,47.59359,-54.27349
2021-12-20 11:04:00+00:00,326.0,7.57,321.0,9.36,12.41,47.59359,-54.27349
2021-12-20 12:14:01+00:00,332.0,7.48,326.0,9.67,12.41,47.59359,-54.27349
2021-12-20 12:24:01+00:00,319.0,7.38,317.0,9.19,12.41,47.59359,-54.27349
2021-12-20 12:34:01+00:00,320.0,7.29,315.0,9.07,12.41,47.59359,-54.27349
2021-12-20 12:44:01+00:00,327.0,7.76,320.0,9.47,12.41,47.59359,-54.27349
2021-12-20 12:54:01+00:00,322.0,8.45,322.0,9.99,12.41,47.59359,-54.27349
2021-12-20 13:04:01+00:00,349.0,6.85,323.0,9.81,12.41,47.59359,-54.27349
2021-12-20 13:14:01+00:00,5.0,7.11,27.0,9.2,12.41,47.59359,-54.27349
2021-12-20 13:24:01+00:00,354.0,7.61,11.0,10.9,12.41,47.59359,-54.27349
2021-12-20 13:34:01+00:00,3.0,6.86,37.0,8.8,12.41,47.59359,-54.27349
2021-12-20 13:44:01+00:00,358.0,8.57,334.0,9.67,12.41,47.59359,-54.27349
2021-12-20 13:54:01+00:00,26.0,8.26,17.0,12.31,12.41,47.59359,-54.27349
2021-12-20 14:04:01+00:00,30.0,8.77,32.0,10.77,12.41,47.59359,-54.27349
2021-12-20 14:14:00+00:00,345.0,7.29,325.0,9.32,13.29,47.59359,-54.27349
2021-12-20 14:24:00+00:00,339.0,7.83,321.0,9.82,13.29,47.59359,-54.27349
2021-12-20 14:34:00+00:00,24.0,8.68,29.0,10.36,13.29,47.59359,-54.27349
2021-12-20 14:44:00+00:00,25.0,8.89,28.0,10.24,13.29,47.59359,-54.27349
2021-12-20 14:54:00+00:00,27.0,8.79,31.0,10.05,13.29,47.59359,-54.27349
2021-12-20 15:04:00+00:00,17.0,7.22,32.0,9.11,13.29,47.59359,-54.27349
2021-12-20 16:14:01+00:00,357.0,6.66,330.0,8.77,13.6,47.59359,-54.27349
2021-12-20 16:24:01+00:00,359.0,6.56,327.0,8.55,13.6,47.59359,-54.27349
2021-12-20 16:34:01+00:00,327.0,6.89,321.0,8.39,13.6,47.59359,-54.27349
2021-12-20 16:44:01+00:00,321.0,7.07,333.0,8.78,13.6,47.59359,-54.27349
2021-12-20 16:54:01+00:00,333.0,7.68,331.0,9.3,13.6,47.59359,-54.27349
2021-12-20 17:04:01+00:00,343.0,7.15,328.0,9.61,13.6,47.59359,-54.27349
2021-12-20 17:14:01+00:00,325.0,8.09,331.0,12.08,14.4,47.59359,-54.27349
2021-12-20 17:24:01+00:00,319.0,6.45,320.0,7.58,14.4,47.59359,-54.27349
2021-12-20 17:34:01+00:00,310.0,5.3,305.0,7.73,14.4,47.59359,-54.27349
2021-12-20 17:44:01+00:00,341.0,8.02,327.0,9.55,14.4,47.59359,-54.27349
2021-12-20 17:54:01+00:00,346.0,7.46,324.0,9.33,14.4,47.59359,-54.27349
2021-12-20 18:04:01+00:00,329.0,5.07,322.0,8.16,14.4,47.59359,-54.27349
2021-12-20 18:14:01+00:00,331.0,7.41,317.0,9.07,14.4,47.59359,-54.27349
2021-12-20 18:24:01+00:00,349.0,7.12,313.0,8.64,14.4,47.59359,-54.27349
2021-12-20 18:34:01+00:00,333.0,7.94,319.0,9.89,14.4,47.59359,-54.27349
2021-12-20 18:44:01+00:00,330.0,8.37,327.0,9.82,14.4,47.59359,-54.27349
2021-12-20 18:54:01+00:00,336.0,6.44,324.0,8.32,14.4,47.59359,-54.27349
2021-12-20 19:04:01+00:00,307.0,6.58,305.0,7.68,14.4,47.59359,-54.27349
2021-12-20 19:14:01+00:00,312.0,7.17,304.0,8.24,13.68,47.59359,-54.27349
2021-12-20 19:24:01+00:00,316.0,6.52,306.0,8.06,13.68,47.59359,-54.27349
2021-12-20 19:34:01+00:00,315.0,5.43,303.0,7.72,13.68,47.59359,-54.27349
2021-12-20 19:44:01+00:00,309.0,5.45,304.0,7.72,13.68,47.59359,-54.27349
2021-12-20 19:54:01+00:00,302.0,6.36,302.0,7.88,13.68,47.59359,-54.27349
2021-12-20 20:04:01+00:00,293.0,5.83,292.0,7.26,13.68,47.59359,-54.27349
2021-12-20 20:14:01+00:00,306.0,7.11,316.0,8.45,12.73,47.59359,-54.27349
2021-12-20 20:24:01+00:00,304.0,6.71,303.0,8.22,12.73,47.59359,-54.27349
2021-12-20 20:34:01+00:00,323.0,5.56,332.0,8.38,12.73,47.59359,-54.27349
2021-12-20 20:44:01+00:00,323.0,6.63,308.0,8.12,12.73,47.59359,-54.27349
2021-12-20 20:54:01+00:00,314.0,6.88,311.0,8.65,12.73,47.59359,-54.27349
2021-12-20 21:04:01+00:00,311.0,7.09,312.0,8.67,12.73,47.59359,-54.27349
2021-12-20 21:14:01+00:00,311.0,7.73,311.0,8.84,12.65,47.59359,-54.27349
2021-12-20 21:24:01+00:00,314.0,5.91,305.0,7.76,12.65,47.59359,-54.27349
2021-12-20 21:34:01+00:00,308.0,6.53,304.0,8.05,12.65,47.59359,-54.27349
2021-12-20 21:44:01+00:00,312.0,6.55,309.0,8.22,12.65,47.59359,-54.27349
2021-12-20 21:54:01+00:00,309.0,5.08,296.0,6.94,12.65,47.59359,-54.27349
2021-12-20 22:04:01+00:00,307.0,6.99,309.0,8.24,12.65,47.59359,-54.27349
2021-12-20 22:14:00+00:00,306.0,5.3,300.0,7.67,12.57,47.59359,-54.27349
2021-12-20 22:24:00+00:00,301.0,4.68,288.0,7.23,12.57,47.59359,-54.27349
2021-12-20 22:34:00+00:00,300.0,5.18,294.0,7.37,12.57,47.59359,-54.27349
2021-12-20 22:44:00+00:00,308.0,5.5,296.0,7.48,12.57,47.59359,-54.27349
2021-12-20 22:54:00+00:00,315.0,5.71,309.0,7.71,12.57,47.59359,-54.27349
2021-12-20 23:04:00+00:00,327.0,5.6,322.0,7.7,12.57,47.59359,-54.27349
2021-12-20 23:14:01+00:00,313.0,4.15,314.0,6.98,12.57,47.59359,-54.27349
2021-12-20 23:24:01+00:00,307.0,6.61,317.0,8.83,12.57,47.59359,-54.27349
2021-12-20 23:34:01+00:00,312.0,4.98,321.0,7.05,12.57,47.59359,-54.27349
2021-12-20 23:44:01+00:00,317.0,6.07,311.0,8.25,12.57,47.59359,-54.27349
2021-12-20 23:54:01+00:00,318.0,8.44,321.0,10.25,12.57,47.59359,-54.27349
